Estación de Lago Verde INIA

Ultimos registro cada 15 minutos 41
Estación Fecha / Hora Temperatura Humedad Lluvia Velocidad Dirección Radiación Presion
41 Lago Verde INIA 08-05-2026 10:00 6,6 99,7 0 2,1 211 83 993
40 Lago Verde INIA 08-05-2026 09:45 6,5 99,6 0 1,6 207 60 993
39 Lago Verde INIA 08-05-2026 09:30 6,5 99,6 0,1 0,3 200 49 992
38 Lago Verde INIA 08-05-2026 09:15 6,5 99,5 0,1 0 0 39 992
37 Lago Verde INIA 08-05-2026 09:00 6,3 99,5 0 0 0 31 992
36 Lago Verde INIA 08-05-2026 08:45 6,3 99,3 0 0 0 24 991
35 Lago Verde INIA 08-05-2026 08:30 6,2 99,2 0,1 0 0 16 991
34 Lago Verde INIA 08-05-2026 08:15 6,2 99,2 0,2 0 0 7 990
33 Lago Verde INIA 08-05-2026 08:00 6,1 99,2 0 0 0 2 990
32 Lago Verde INIA 08-05-2026 07:45 6,1 99,1 0,1 0 0 0 990
31 Lago Verde INIA 08-05-2026 07:30 6,1 98,9 0,1 0 0 0 990
30 Lago Verde INIA 08-05-2026 07:15 6,1 98,9 0 0 0 0 990
29 Lago Verde INIA 08-05-2026 07:00 6,1 98,6 0,1 0 0 0 990
28 Lago Verde INIA 08-05-2026 06:45 6,1 98,3 0 0 0 0 990
27 Lago Verde INIA 08-05-2026 06:30 6 98 0 0 0 0 990
26 Lago Verde INIA 08-05-2026 06:15 6,1 97,8 0 0 211 0 990
25 Lago Verde INIA 08-05-2026 06:00 6,1 97,6 0 0 0 0 990
24 Lago Verde INIA 08-05-2026 05:45 6,2 97,2 0 0 0 0 990
23 Lago Verde INIA 08-05-2026 05:30 6,2 97,4 0 0,2 58 0 990
22 Lago Verde INIA 08-05-2026 05:15 6,1 97,5 0 0,1 98 0 990
21 Lago Verde INIA 08-05-2026 05:00 6 97,3 0,1 0 150 0 990
20 Lago Verde INIA 08-05-2026 04:45 6 97,2 0 0 0 0 990
19 Lago Verde INIA 08-05-2026 04:30 6 97,2 0,3 0 0 0 990
18 Lago Verde INIA 08-05-2026 04:15 6 97 0,2 0,6 50 0 990
17 Lago Verde INIA 08-05-2026 04:00 6 96,7 0,3 0,3 96 0 990
16 Lago Verde INIA 08-05-2026 03:45 5,9 96,9 0,8 0,5 56 0 990
15 Lago Verde INIA 08-05-2026 03:30 5,9 96,6 0,1 0,4 89 0 990
14 Lago Verde INIA 08-05-2026 03:15 5,8 96,4 0,2 0,9 73 0 990
13 Lago Verde INIA 08-05-2026 03:00 5,8 96,3 0,2 0,2 68 0 990
12 Lago Verde INIA 08-05-2026 02:45 5,8 96,2 0 1 54 0 991
11 Lago Verde INIA 08-05-2026 02:30 5,8 96,2 0 1,4 66 0 991
10 Lago Verde INIA 08-05-2026 02:15 5,7 96,3 0,1 1,7 68 0 991
9 Lago Verde INIA 08-05-2026 02:00 5,6 96,1 0 1,6 65 0 991
8 Lago Verde INIA 08-05-2026 01:45 5,6 95,8 0,1 1,4 51 0 991
7 Lago Verde INIA 08-05-2026 01:30 5,6 95,8 0,2 0,2 77 0 991
6 Lago Verde INIA 08-05-2026 01:15 5,5 95,7 0 1,3 64 0 992
5 Lago Verde INIA 08-05-2026 01:00 5,4 96,5 0 1,9 54 0 992
4 Lago Verde INIA 08-05-2026 00:45 5,3 96,7 0 1,7 66 0 992
3 Lago Verde INIA 08-05-2026 00:30 5,3 96,5 0 1,2 67 0 992
2 Lago Verde INIA 08-05-2026 00:15 5,2 96,3 0 1,6 65 0 992
1 Lago Verde INIA 08-05-2026 00:00 5,2 96,1 0,1 1 51 0 992